STARLINK-5751 (55576 NORAD) Tracking and Keplerian Element Data

This shows tracking and keplerian element data for the satellite.

Feedback or suggestion? Click here.




ElementValue
Catalog55576
NameSTARLINK-5751
Epoch Orbit660
Epoch Day85.09195651
Epoch Year2023
RAAN103.5116
Inclination43.0029
Eccentricity0.0002031
Argument of Perigee323.4204
Mean Anonmoly36.6525
Mean Motion15.7138344
Decay Rate-1.351E-05
L11 55576U 23020H 23085.09195651 -.00001351 00000+0 -68394-5 0 9995
L22 55576 43.0029 103.5116 0002031 323.4204 36.6525 15.71383440 6604



Live tracking and technical data element details for STARLINK-5751 (NORAD 55576). STARLINK-5751 can be tracked NOW for your location showing map with azimuth and elevation plus other details from your city location.







IsCatalogInMostPopularTable: catalog: 55576, numindb: -1

Insert: records affected: 1


GetName: 55576 STARLINK-5751

Hit Count: inserted at: Tue, 28 Mar 2023 03:13:05 GMT